Change the Weather History Date:

Sunday, August 18, 2013

  Actual Average Record
Temperature  
Mean Temperature 65 °F 69 °F  
Max Temperature 80 °F 81 °F 99 °F (1947)
Min Temperature 50 °F 58 °F 40 °F (1895)
Degree Days  
Heating Degree Days 0 1  
Month to date heating degree days 18 13  
Since 1 June heating degree days 91 66  
Since 1 July heating degree days 38 22  
Cooling Degree Days 0 5  
Month to date cooling degree days 25 104  
Year to date cooling degree days 433 498  
Since 1 June cooling degree days 396 463  
Growing Degree Days 14 (Base 50)    
Moisture  
Dew Point 56 °F    
Average Humidity 73    
Maximum Humidity 100    
Minimum Humidity 45    
Precipitation  
Precipitation 0.00 in 0.13 in 2.22 in (1942)
Month to date precipitation 1.61 2.42  
Year to date precipitation 32.70 24.74  
Snow  
Snow 0.00 in 0.00 in - ()
Month to date snowfall 0.0 0.0  
Since 1 June snowfall 0.0 0.0  
Since 1 July snowfall 0.0 0.0  
Snow Depth 0.00 in    
Sea Level Pressure  
Sea Level Pressure 30.14 in    
Wind  
Wind Speed 6 mph (South)    
Max Wind Speed 15 mph    
Max Gust Speed 20 mph    
Visibility 7 miles    
Events Fog    
T = Trace of Precipitation, MM = Missing Value Source: NWS Daily Summary

Daily Weather History Graph

Daily Weather History Graph

Search for Another Location

Airport or City:

Trip Planner

Search our weather history database for the weather conditions in past years. The results will help you decide how hot, cold, wet, or windy it might be!

Date:

Astronomy

Aug. 18, 2013 Rise Set
Actual Time 6:22 AM CDT 8:10 PM CDT
Civil Twilight 5:52 AM CDT 8:41 PM CDT
Nautical Twilight 5:14 AM CDT 9:18 PM CDT
Astronomical Twilight 4:34 AM CDT 9:58 PM CDT
Moon 6:18 PM CDT (8/18) 3:30 AM CDT (8/18)
Length of Visible Light 14h 49m
Length of Day
13h 48m
Waxing Gibbous, 92% of the Moon is Illuminated
Aug 18
Waxing Gibbous
Aug 20
Full
Aug 28
Last Quarter
Sep 5
New
Sep 12
First Quarter

Hourly Weather History & Observations

Time (CDT) Temp. Dew Point Humidity Pressure Visibility Wind Dir Wind Speed Gust Speed Precip Events Conditions
12:53 AM 59.0 °F 55.9 °F 90% 30.16 in 10.0 mi South 6.9 mph - N/A   Scattered Clouds
1:53 AM 57.0 °F 55.0 °F 93% 30.16 in 10.0 mi South 5.8 mph - N/A   Clear
2:53 AM 55.9 °F 55.0 °F 97% 30.15 in 10.0 mi South 4.6 mph - N/A   Clear
3:53 AM 55.0 °F 55.0 °F 100% 30.16 in 8.0 mi Calm Calm - N/A   Clear
4:45 AM 51.8 °F 51.8 °F 100% 30.18 in 2.5 mi South 3.5 mph - N/A   Clear
4:51 AM 51.8 °F 51.8 °F 100% 30.18 in 0.8 mi South 3.5 mph - N/A   Clear
4:53 AM 52.0 °F 51.1 °F 97% 30.17 in 0.5 mi South 3.5 mph - N/A Fog Fog
5:07 AM 51.8 °F 51.8 °F 100% 30.19 in 2.0 mi Calm Calm - N/A   Clear
5:16 AM 51.8 °F 51.8 °F 100% 30.19 in 5.0 mi Calm Calm - N/A   Clear
5:53 AM 51.1 °F 50.0 °F 96% 30.18 in 5.0 mi Calm Calm - N/A   Clear
6:20 AM 50.0 °F 50.0 °F 100% 30.20 in 1.8 mi Calm Calm - N/A   Clear
6:43 AM 50.0 °F 50.0 °F 100% 30.21 in 2.0 mi Calm Calm - N/A   Clear
6:53 AM 51.1 °F 51.1 °F 100% 30.19 in 2.5 mi Calm Calm - N/A   Clear
7:19 AM 53.6 °F 53.6 °F 100% 30.21 in 3.0 mi Calm Calm - N/A   Clear
7:53 AM 59.0 °F 55.9 °F 90% 30.18 in 7.0 mi SSE 3.5 mph - N/A   Clear
8:53 AM 64.9 °F 57.9 °F 78% 30.18 in 10.0 mi SSE 6.9 mph - N/A   Clear
9:53 AM 71.1 °F 59.0 °F 66% 30.17 in 10.0 mi South 8.1 mph - N/A   Clear
10:53 AM 75.0 °F 59.0 °F 57% 30.16 in 10.0 mi SSE 8.1 mph - N/A   Clear
11:53 AM 77.0 °F 59.0 °F 54% 30.15 in 10.0 mi South 8.1 mph - N/A   Clear
12:53 PM 78.1 °F 55.9 °F 46% 30.14 in 10.0 mi South 8.1 mph - N/A   Partly Cloudy
1:53 PM 79.0 °F 57.0 °F 47% 30.12 in 10.0 mi SSW 10.4 mph 18.4 mph N/A   Scattered Clouds
2:53 PM 79.0 °F 55.9 °F 45% 30.10 in 10.0 mi SSW 9.2 mph - N/A   Partly Cloudy
3:53 PM 79.0 °F 57.9 °F 48% 30.10 in 10.0 mi SSW 11.5 mph 16.1 mph N/A   Scattered Clouds
4:53 PM 79.0 °F 57.9 °F 48% 30.10 in 10.0 mi South 10.4 mph - N/A   Partly Cloudy
5:53 PM 77.0 °F 59.0 °F 54% 30.09 in 10.0 mi South 5.8 mph - N/A   Partly Cloudy
6:53 PM 75.0 °F 60.1 °F 60% 30.06 in 10.0 mi South 6.9 mph - N/A   Clear
7:53 PM 71.1 °F 62.1 °F 73% 30.07 in 10.0 mi South 4.6 mph - N/A   Scattered Clouds
8:53 PM 64.0 °F 60.1 °F 87% 30.08 in 10.0 mi South 5.8 mph - N/A   Clear
9:53 PM 62.1 °F 60.1 °F 93% 30.08 in 10.0 mi South 4.6 mph - N/A   Clear
10:53 PM 60.1 °F 59.0 °F 96% 30.07 in 9.0 mi South 5.8 mph - N/A   Clear
11:53 PM 60.1 °F 57.9 °F 93% 30.07 in 8.0 mi South 5.8 mph - N/A   Clear